FW8876 Weather Reports


Display with metric or nautical units.
time (UTC)temp
F
wind
direction
speed
MPH
gust
MPH
rain 1hr
in
rain 24hr
in
rain mn
in
humidity
%
barometer
mb
20260502151026 84 222 0.0 2.0 0.00 0.00 0.00 29 1010.2
20260502123126 62 0.0 0.0 0.00 0.00 0.00 51 1008.3
20260502122043 63 0.0 0.0 0.00 0.00 0.00 51 1008.2
20260502121018 63 0.0 0.0 0.00 0.00 0.00 49 1008.2
20260502115037 64 0.0 0.0 0.00 0.00 0.00 47 1008.1
20260502114019 65 0.0 0.0 0.00 0.00 0.00 47 1008.1
20260502113022 65 0.0 0.0 0.00 0.00 0.00 45 1008.0
20260502112024 66 0.0 0.0 0.00 0.00 0.00 42 1007.9
20260502111106 66 0.0 0.0 0.00 0.00 0.00 42 1007.9
20260502110028 66 0.0 0.0 0.00 0.00 0.00 41 1007.9
20260502105030 67 0.0 0.0 0.00 0.00 0.00 41 1007.9
20260502104032 67 0.0 0.0 0.00 0.00 0.00 39 1007.7
20260502103017 68 0.0 0.0 0.00 0.00 0.00 39 1007.5
20260502102019 68 0.0 0.0 0.00 0.00 0.00 39 1007.6
20260502101042 69 0.0 0.0 0.00 0.00 0.00 39 1007.7
20260502091016 70 0.0 0.0 0.00 0.00 0.00 38 1007.4
20260502071019 68 0.0 0.0 0.00 0.00 0.00 42 1006.7
20260502070021 69 0.0 0.0 0.00 0.00 0.00 42 1006.5
20260502065017 69 0.0 0.0 0.00 0.00 0.00 42 1006.6
20260502064026 69 0.0 0.0 0.00 0.00 0.00 40 1006.6
20260502063027 69 0.0 0.0 0.00 0.00 0.00 40 1006.5
20260502062031 70 0.0 0.0 0.00 0.00 0.00 39 1006.3
20260502061027 70 0.0 0.0 0.00 0.00 0.00 39 1006.2
20260502060029 70 0.0 0.0 0.00 0.00 0.00 39 1006.1
20260502055033 71 0.0 0.0 0.00 0.00 0.00 37 1006.1
20260502054017 72 0.0 0.0 0.00 0.00 0.00 37 1006.1
20260502053019 72 0.0 0.0 0.00 0.00 0.00 36 1006.1
20260502052022 73 0.0 0.0 0.00 0.00 0.00 35 1005.9
20260502051024 73 0.0 0.0 0.00 0.00 0.00 36 1005.8
20260502050026 74 0.0 0.0 0.00 0.00 0.00 35 1005.7
20260502045029 74 0.0 0.0 0.00 0.00 0.00 34 1005.8
20260502044031 75 0.0 0.0 0.00 0.00 0.00 34 1005.8
20260502043027 76 0.0 0.0 0.00 0.00 0.00 33 1005.8
20260502042037 77 0.0 0.0 0.00 0.00 0.00 32 1005.6
20260502041039 78 0.0 0.0 0.00 0.00 0.00 31 1005.5
20260502040015 79 0.0 0.0 0.00 0.00 0.00 30 1005.3
20260502035024 80 0.0 0.0 0.00 0.00 0.00 29 1005.2
20260502034026 81 0.0 0.0 0.00 0.00 0.00 28 1005.2
20260502033048 82 0.0 0.0 0.00 0.00 0.00 28 1005.1
20260502032030 83 0.0 0.0 0.00 0.00 0.00 27 1005.0
20260502031032 83 0.0 0.0 0.00 0.00 0.00 26 1004.7
20260502030016 84 0.0 0.0 0.00 0.00 0.00 26 1004.6
20260502025018 84 0.0 0.0 0.00 0.00 0.00 26 1004.6
20260502024020 84 0.0 0.0 0.00 0.00 0.00 26 1004.5
20260502023044 85 0.0 0.0 0.00 0.00 0.00 26 1004.5
20260502022025 85 0.0 0.0 0.00 0.00 0.00 26 1004.5
20260502021028 86 0.0 0.0 0.00 0.00 0.00 26 1004.2
20260502020030 86 0.0 0.0 0.00 0.00 0.00 26 1004.1
20260502015026 87 86 1.0 7.0 0.00 0.00 0.00 26 1004.0
20260502014016 87 63 1.0 5.0 0.00 0.00 0.00 27 1004.0
20260502013038 88 0.0 0.0 0.00 0.00 0.00 26 1004.0
20260502012020 90 0.0 0.0 0.00 0.00 0.00 24 1004.1
20260502011023 90 0.0 0.0 0.00 0.00 0.00 24 1004.2
20260502010025 91 0.0 0.0 0.00 0.00 0.00 24 1004.2
20260502005027 91 0.0 0.0 0.00 0.00 0.00 25 1004.2
20260502004029 91 0.0 2.0 0.00 0.00 0.00 26 1004.2
20260502003031 91 86 3.0 6.0 0.00 0.00 0.00 26 1004.2
20260502002033 92 90 1.0 6.0 0.00 0.00 0.00 26 1004.5
20260502001038 93 0.0 0.0 0.00 0.00 0.00 27 1004.3
20260502000019 93 113 1.0 5.0 0.00 0.00 0.00 26 1004.5
20260501235021 93 0.0 0.0 0.00 0.00 0.00 26 1004.5
20260501234023 93 1.0 6.0 0.00 0.00 0.00 26 1004.5
20260501233026 93 0.0 0.0 0.00 0.00 0.00 27 1004.5
20260501232048 93 86 0.0 5.0 0.00 0.00 0.00 26 1004.6
20260501231024 93 0.0 4.0 0.00 0.00 0.00 26 1004.8
20260501230021 94 89 2.0 7.0 0.00 0.00 0.00 26 1004.8
20260501225037 93 92 1.0 5.0 0.00 0.00 0.00 26 1004.9
20260501224019 94 99 3.0 8.0 0.00 0.00 0.00 26 1005.1
20260501223041 94 96 2.0 6.0 0.00 0.00 0.00 25 1005.3
20260501222023 93 45 0.0 2.0 0.00 0.00 0.00 24 1005.4
20260501221020 94 0.0 8.0 0.00 0.00 0.00 25 1005.5
20260501220027 92 0.0 2.0 0.00 0.00 0.00 25 1005.8
20260501215025 94 105 6.0 11.0 0.00 0.00 0.00 25 1005.9
20260501214027 93 74 4.0 7.0 0.00 0.00 0.00 26 1006.0
20260501213029 93 92 2.0 6.0 0.00 0.00 0.00 28 1006.2
20260501212031 93 80 5.0 8.0 0.00 0.00 0.00 27 1006.2
20260501211053 94 107 3.0 8.0 0.00 0.00 0.00 27 1006.5
20260501210017 93 90 1.0 6.0 0.00 0.00 0.00 26 1006.5
20260501205019 94 87 3.0 5.0 0.00 0.00 0.00 26 1006.7
20260501204022 93 0.0 0.0 0.00 0.00 0.00 28 1006.7
20260501203024 91 113 0.0 5.0 0.00 0.00 0.00 29 1006.8
20260501202020 91 53 4.0 6.0 0.00 0.00 0.00 28 1007.0
20260501201037 90 255 0.0 3.0 0.00 0.00 0.00 28 1007.1
20260501200031 90 95 4.0 6.0 0.00 0.00 0.00 29 1007.3
20260501195032 91 96 4.0 9.0 0.00 0.00 0.00 29 1007.3
20260501194017 89 113 1.0 6.0 0.00 0.00 0.00 29 1007.5
20260501193019 90 96 3.0 8.0 0.00 0.00 0.00 29 1007.6
20260501192029 90 95 4.0 7.0 0.00 0.00 0.00 30 1007.8
20260501191031 90 0.0 0.0 0.00 0.00 0.00 31 1007.8
20260501190033 88 0.0 0.0 0.00 0.00 0.00 32 1008.0
20260501185017 88 0.0 0.0 0.00 0.00 0.00 32 1008.2
20260501184019 88 63 2.0 6.0 0.00 0.00 0.00 32 1008.3
20260501183022 87 113 1.0 6.0 0.00 0.00 0.00 32 1008.3
20260501182023 88 91 4.0 6.0 0.00 0.00 0.00 32 1008.4
20260501181106 87 90 2.0 6.0 0.00 0.00 0.00 33 1008.7
20260501180028 86 0.0 0.0 0.00 0.00 0.00 35 1008.9
20260501175024 86 0.0 0.0 0.00 0.00 0.00 34 1008.9
20260501174020 85 125 1.0 4.0 0.00 0.00 0.00 35 1009.0
20260501173037 84 0.0 0.0 0.00 0.00 0.00 36 1009.0
20260501172019 84 92 4.0 7.0 0.00 0.00 0.00 35 1009.1
20260501171021 83 84 1.0 4.0 0.00 0.00 0.00 37 1009.0
20260501170023 82 0.0 0.0 0.00 0.00 0.00 37 1009.1
20260501165026 83 68 0.0 7.0 0.00 0.00 0.00 37 1008.9
20260501164048 82 0.0 0.0 0.00 0.00 0.00 38 1009.0
20260501163030 82 0.0 0.0 0.00 0.00 0.00 38 1009.0
20260501162032 80 104 1.0 5.0 0.00 0.00 0.00 39 1009.1
20260501161016 80 0.0 1.0 0.00 0.00 0.00 39 1008.8
20260501160019 79 0.0 0.0 0.00 0.00 0.00 39 1009.0
20260501154023 78 0.0 0.0 0.00 0.00 0.00 41 1008.8
20260501153025 78 0.0 0.0 0.00 0.00 0.00 41 1008.8
20260501152027 78 0.0 0.0 0.00 0.00 0.00 41 1008.6